[[{"header":{"parameterUnit":"m.s-1","parameterCategory":1,"la1":30.2991,"la2":30.254,"lo1":-89.0895,"lo2":-89.0444,"dy":0.0017,"dx":0.0017,"nx":28,"ny":28,"refTime":"2023-10-12T09:00:00:Z","depth":0,"parameterNumber":2,"parameterNumberName":"U-component_of_WINDS"},"data":[0,0,0,0,0,0,0,0,0,0,0,0,0,0,0,0,0,0,0,0,0,0,0,0,0,0,0,0,0,0,0,0,0,0,0,0,0,0,0,0,0,0,0,0,0,0,0,0,0,0,0,0,0,0,0,0,0,0,0.869,0.869,0,0.864,0.864,0.8639,0.8603,0.8603,0.8603,0.8602,0.8549,0.8548,0.8547,0,0,0,0,0,0,0,0,0,0,0,0,0,0.8754,0.8753,0.869,0.869,0.8689,0.864,0.864,0.8639,0.8603,0.8603,0.8603,0.8602,0.855,0.8548,0.8547,0,0,0,0,0,0,0,0,0,0,0,0,0,0.8718,0.8753,0.869,0.8665,0.8663,0.8641,0.864,0.8639,0.8603,0.8603,0.8603,0.8602,0.855,0.8549,0.8547,0.8545,0,0,0.8542,0.8541,0,0,0,0,0,0,0,0,0.872,0.8715,0.867,0.8667,0.8664,0.8628,0.8643,0.8607,0.8604,0.8626,0.8602,0.8602,0.8576,0.8572,0.8563,0.8542,0.854,0.8541,0.854,0.854,0.8539,0,0,0,0,0,0,0,0.8722,0.8717,0.867,0.8669,0.8666,0.8657,0.8651,0.8636,0.8604,0.8624,0.8621,0.8616,0.8574,0.8565,0.8562,0.8539,0.8541,0.854,0.8539,0.8538,0.8516,0.8516,0,0,0,0,0,0,0.8729,0.872,0.8672,0.8669,0.8691,0.8656,0.8649,0.864,0.8604,0.8598,0.8616,0.8614,0.8568,0.8564,0.856,0.8556,0.854,0.8538,0.8537,0.8516,0.8516,0.8517,0,0,0,0,0,0,0.873,0.8725,0.8674,0.8694,0.8686,0.8655,0.8645,0.8639,0.863,0.8598,0.8592,0.8613,0.8568,0.8562,0.8549,0.8553,0.8537,0.8536,0.8515,0.8516,0.8516,0.8548,0,0,0,0,0,0,0.8732,0.8726,0.8725,0.8694,0.8686,0.8665,0.8645,0.8638,0.8627,0.8624,0.8594,0.8588,0.8567,0.8552,0.8548,0.8551,0.8534,0.8515,0.8515,0.8516,0.8546,0.8549,0.8552,0,0,0,0,0,0.8735,0.8735,0.8725,0.8719,0.8684,0.8665,0.866,0.8636,0.8628,0.8626,0.8606,0.8589,0.8554,0.8551,0.8546,0.8548,0.8514,0.8515,0.8516,0.8545,0.8549,0.8552,0,0,0,0,0,0,0.8765,0.873,0.8719,0.8709,0.869,0.8659,0.8656,0.8641,0.8624,0.8622,0.8593,0.8586,0.8577,0.8561,0.8559,0.8546,0.8532,0.8532,0.8556,0.8559,0.8562,0.8565,0.8533,0,0,0,0,0,0.8771,0.8759,0.8729,0.8723,0.8715,0.8688,0.8678,0.8662,0.8641,0.8633,0.8612,0.8592,0.8577,0.8567,0.8551,0.8544,0.8537,0.8544,0.8547,0.8549,0.8549,0.8545,0.8548,0.852,0.852,0.852,0,0,0.8782,0.8762,0.8756,0.8729,0.8713,0.8701,0.8681,0.8669,0.866,0.8631,0.8618,0.8602,0.8578,0.8569,0.8563,0.8556,0.8556,0.8551,0.8553,0.8551,0.8547,0.8549,0.8552,0.8521,0.852,0.852,0,0,0.8797,0.878,0.8774,0.8759,0.8735,0.8718,0.8716,0.8688,0.8676,0.8663,0.8642,0.8631,0.8605,0.8589,0.8578,0.859,0.8573,0.8585,0.86,0.8597,0.8599,0.8601,0.8605,0.8607,0.8586,0.8586,0.8586,0,0.8814,0.8796,0.8772,0.8763,0.8752,0.8727,0.872,0.8706,0.8679,0.8671,0.8664,0.8632,0.8614,0.8601,0.8604,0.8596,0.8593,0.8588,0.8601,0.8602,0.8604,0.8607,0.8609,0.8587,0.8587,0.8587,0.8587,0,0.8818,0.8806,0.8804,0.8779,0.8768,0.876,0.8735,0.8727,0.8712,0.8696,0.8683,0.8661,0.8641,0.8637,0.8622,0.8622,0.8618,0.8606,0.8592,0.8608,0.8611,0.8613,0.859,0.8589,0.8589,0.8588,0,0,0.8848,0.8812,0.8812,0.8801,0.8774,0.8764,0.8756,0.8737,0.8731,0.8713,0.8705,0.8685,0.8674,0.8662,0.8645,0.8642,0.8654,0.863,0.8629,0.8635,0.8653,0.8662,0.8664,0.8643,0.8644,0.8644,0.8655,0,0.8858,0.8841,0.8821,0.8812,0.8801,0.8778,0.8771,0.8754,0.8739,0.8727,0.871,0.8697,0.8683,0.8675,0.8672,0.8653,0.8657,0.8652,0.8635,0.8635,0.8641,0.8666,0.8675,0.8686,0.8656,0.8656,0.8657,0,0.8867,0.8852,0.8842,0.8818,0.8812,0.8806,0.8788,0.8778,0.8758,0.8748,0.8735,0.8718,0.8708,0.8696,0.8683,0.868,0.8672,0.8662,0.8662,0.8659,0.8646,0.8663,0.8689,0.8691,0.8658,0.8658,0.8658,0,0.889,0.8867,0.8858,0.885,0.8821,0.8818,0.8806,0.8786,0.8777,0.8762,0.8755,0.8739,0.873,0.8717,0.8697,0.869,0.8685,0.8672,0.8676,0.8677,0.8675,0.8675,0.87,0.8671,0.8671,0.8671,0.8671,0,0.8903,0.8897,0.8869,0.8863,0.8857,0.8834,0.8828,0.8814,0.8798,0.8789,0.8769,0.8761,0.8734,0.8724,0.8707,0.8699,0.8695,0.8686,0.8681,0.8687,0.8688,0.8681,0.8679,0.8672,0.8671,0.8671,0.8671,0,0.8926,0.8907,0.8896,0.8871,0.8865,0.8861,0.884,0.8834,0.8819,0.8808,0.8804,0.878,0.8767,0.8745,0.8725,0.8715,0.8709,0.8702,0.8715,0.8713,0.8718,0.8718,0.8739,0.8741,0.8711,0.8712,0.8712,0,0.8935,0.8931,0.8906,0.89,0.8889,0.8878,0.8869,0.8848,0.8839,0.8819,0.8815,0.8801,0.8788,0.8768,0.8748,0.8733,0.8725,0.8734,0.8723,0.8729,0.8725,0.8725,0.8725,0.8736,0.8736,0.8737,0.8737,0,0.8954,0.8945,0.8933,0.8919,0.8909,0.8896,0.8882,0.8878,0.8853,0.8845,0.8832,0.8822,0.8803,0.8789,0.8772,0.8759,0.8744,0.8741,0.8741,0.8746,0.8755,0.875,0.8722,0.874,0.874,0.874,0.8739,0.8739,0.897,0.8965,0.8948,0.8936,0.8924,0.8912,0.8906,0.8891,0.8879,0.8863,0.8851,0.8839,0.8821,0.8797,0.8785,0.8776,0.8769,0.8769,0.8769,0.8769,0.8771,0.8757,0.8772,0.8772,0.8772,0.8772,0.8772,0,0.8987,0.8975,0.8964,0.8947,0.8938,0.8926,0.8911,0.8904,0.8894,0.8879,0.8868,0.8853,0.884,0.8821,0.8806,0.8802,0.8795,0.8799,0.8798,0.8796,0.8778,0.878,0.8805,0.8805,0.8805,0.8805,0.8805,0.8805,0.8994,0.8986,0.8976,0.8962,0.8951,0.8939,0.8932,0.8921,0.8909,0.8895,0.8884,0.8872,0.8856,0.884,0.8828,0.8823,0.8818,0.8824,0.8817,0.88,0.8797,0.8794,0.8795,0.8824,0.8824,0.8835,0.8835,0.8835]},{"header":{"parameterUnit":"m.s-1","parameterCategory":1,"la1":30.2991,"la2":30.254,"lo1":-89.0895,"lo2":-89.0444,"dy":0.0017,"dx":0.0017,"nx":28,"ny":28,"refTime":"2023-10-12T09:00:00:Z","depth":0,"parameterNumber":3,"parameterNumberName":"V-component_of_WINDS"},"data":[0,0,0,0,0,0,0,0,0,0,0,0,0,0,0,0,0,0,0,0,0,0,0,0,0,0,0,0,0,0,0,0,0,0,0,0,0,0,0,0,0,0,0,0,0,0,0,0,0,0,0,0,0,0,0,0,0,0,-4.9794,-4.9795,0,-4.988,-4.9881,-4.9881,-4.9844,-4.9842,-4.984,-4.9838,-4.992,-4.9924,-4.9928,0,0,0,0,0,0,0,0,0,0,0,0,0,-4.9594,-4.9598,-4.9794,-4.9795,-4.9796,-4.9879,-4.9881,-4.9882,-4.9845,-4.9842,-4.984,-4.9837,-4.9919,-4.9924,-4.9929,0,0,0,0,0,0,0,0,0,0,0,0,0,-4.968,-4.9599,-4.9794,-4.9788,-4.9788,-4.9879,-4.9881,-4.9882,-4.9845,-4.9842,-4.9839,-4.9836,-4.9917,-4.9923,-4.993,-5.003,0,0,-4.9948,-4.9951,0,0,0,0,0,0,0,0,-4.9675,-4.9687,-4.9788,-4.9788,-4.9789,-4.9848,-4.984,-4.9931,-4.9846,-4.9823,-4.9838,-4.9835,-4.9899,-4.9906,-4.9929,-5.0034,-5.0037,-4.9949,-4.9953,-4.9955,-4.9957,0,0,0,0,0,0,0,-4.9669,-4.9683,-4.9828,-4.9789,-4.979,-4.9779,-4.9788,-4.9857,-4.9877,-4.9825,-4.9823,-4.9834,-4.9898,-4.9923,-4.993,-5.0038,-4.9949,-4.9954,-4.9958,-4.996,-5.023,-5.0234,0,0,0,0,0,0,-4.9664,-4.9679,-4.9825,-4.983,-4.9723,-4.9785,-4.9795,-4.9832,-4.9876,-4.988,-4.9836,-4.9832,-4.9914,-4.9923,-4.9933,-5.0054,-4.9955,-4.9961,-4.9965,-5.0227,-5.0231,-5.0235,0,0,0,0,0,0,-4.966,-4.9677,-4.9821,-4.9754,-4.9771,-4.9792,-4.9834,-4.9836,-4.986,-4.9885,-4.9888,-4.9858,-4.9912,-4.9924,-5.0007,-5.0056,-4.9964,-4.9969,-5.0223,-5.0228,-5.0233,-5.0296,0,0,0,0,0,0,-4.9654,-4.9676,-4.9715,-4.9755,-4.9775,-4.9895,-4.9837,-4.9839,-4.9872,-4.9866,-4.9906,-4.991,-4.991,-4.9998,-5.0013,-5.0063,-4.9974,-5.0218,-5.0225,-5.0231,-5.029,-5.0303,-5.0314,0,0,0,0,0,-4.9647,-4.9728,-4.9718,-4.9735,-4.9825,-4.9898,-4.9909,-4.991,-4.9876,-4.9915,-4.9931,-4.9908,-5.0049,-5.0006,-5.0023,-5.0076,-5.0215,-5.0223,-5.0231,-5.0284,-5.03,-5.0314,0,0,0,0,0,0,-4.9692,-4.9733,-4.9722,-4.9819,-4.9856,-4.9892,-4.9941,-4.9927,-4.9973,-4.9966,-4.9963,-4.9972,-5.0057,-5.0075,-5.0027,-5.0176,-5.0126,-5.0138,-5.0161,-5.0177,-5.0189,-5.0183,-4.9979,0,0,0,0,0,-4.9713,-4.9771,-4.9803,-4.9885,-4.9905,-4.992,-4.9952,-4.9949,-4.9986,-5.0001,-5.0023,-5.0058,-5.011,-5.0144,-5.0193,-5.0292,-5.03,-5.0337,-5.0349,-5.0359,-5.0369,-5.0423,-5.044,-5.026,-5.026,-5.026,0,0,-4.9757,-4.9787,-4.9823,-4.9895,-4.9923,-4.9982,-4.9933,-4.9996,-5.0039,-5.001,-5.009,-5.0107,-5.0146,-5.0237,-5.0278,-5.0254,-5.042,-5.0369,-5.0377,-5.0381,-5.0432,-5.0449,-5.0465,-5.0266,-5.0265,-5.0264,0,0,-4.9868,-4.9896,-4.9969,-4.9998,-5.0042,-5.0052,-5.007,-5.0109,-5.012,-5.02,-5.018,-5.023,-5.0319,-5.0348,-5.0375,-5.0498,-5.0479,-5.0514,-5.0578,-5.063,-5.0644,-5.0657,-5.0701,-5.0717,-5.0524,-5.0524,-5.0524,0,-4.9916,-5.0005,-5.0007,-5.0073,-5.0105,-5.0084,-5.0156,-5.0184,-5.0241,-5.0263,-5.0236,-5.0349,-5.0374,-5.0472,-5.0502,-5.0524,-5.0543,-5.0509,-5.0642,-5.0655,-5.0667,-5.0709,-5.0725,-5.0528,-5.0527,-5.0527,-5.0527,0,-5.0063,-5.0125,-5.0178,-5.0236,-5.0274,-5.0343,-5.0354,-5.0392,-5.0386,-5.0399,-5.0481,-5.051,-5.0565,-5.0588,-5.0582,-5.0686,-5.0669,-5.0643,-5.0593,-5.0688,-5.0727,-5.0743,-5.0534,-5.0532,-5.0531,-5.053,0,0,-5.0203,-5.0263,-5.0282,-5.0309,-5.0357,-5.0404,-5.0471,-5.0527,-5.056,-5.06,-5.0656,-5.0733,-5.0709,-5.074,-5.0737,-5.0783,-5.0879,-5.0751,-5.0751,-5.0774,-5.0995,-5.1015,-5.1034,-5.0867,-5.087,-5.0873,-5.0992,0,-5.0317,-5.0438,-5.0442,-5.0552,-5.0609,-5.059,-5.0649,-5.0684,-5.0697,-5.0746,-5.076,-5.0815,-5.0779,-5.0797,-5.0842,-5.0858,-5.0924,-5.085,-5.0918,-5.0921,-5.091,-5.1054,-5.1076,-5.1187,-5.1007,-5.101,-5.1012,0,-5.0467,-5.0514,-5.0631,-5.0672,-5.0695,-5.0749,-5.0801,-5.0848,-5.0887,-5.0894,-5.0929,-5.092,-5.0987,-5.0936,-5.1029,-5.0979,-5.1007,-5.1019,-5.1023,-5.103,-5.0972,-5.1065,-5.1222,-5.1239,-5.1036,-5.1034,-5.1032,0,-5.0558,-5.0651,-5.0733,-5.0756,-5.0805,-5.0843,-5.0865,-5.0901,-5.0935,-5.098,-5.1002,-5.1053,-5.1082,-5.1121,-5.1126,-5.1088,-5.1219,-5.1168,-5.1226,-5.1226,-5.1254,-5.1252,-5.1418,-5.1272,-5.1272,-5.1272,-5.1272,0,-5.0685,-5.0757,-5.0774,-5.0825,-5.0905,-5.0908,-5.0986,-5.1005,-5.1038,-5.109,-5.1076,-5.1125,-5.1129,-5.1179,-5.1183,-5.1259,-5.1272,-5.1278,-5.1279,-5.128,-5.1279,-5.1298,-5.1291,-5.1276,-5.1275,-5.1274,-5.1274,0,-5.08,-5.0815,-5.0903,-5.0943,-5.0955,-5.1012,-5.1046,-5.1093,-5.1106,-5.1173,-5.1189,-5.1208,-5.1267,-5.1276,-5.1343,-5.1346,-5.1438,-5.143,-5.1426,-5.1425,-5.1482,-5.1477,-5.1666,-5.1691,-5.1529,-5.153,-5.1532,0,-5.088,-5.0936,-5.0983,-5.1018,-5.1043,-5.11,-5.1135,-5.114,-5.1177,-5.1227,-5.1268,-5.1326,-5.1372,-5.1467,-5.1486,-5.1538,-5.1531,-5.1594,-5.1538,-5.1538,-5.1532,-5.1529,-5.1534,-5.1604,-5.1606,-5.1607,-5.1609,0,-5.1021,-5.1027,-5.1079,-5.1135,-5.1178,-5.1221,-5.1262,-5.1291,-5.1302,-5.1344,-5.1405,-5.1441,-5.1512,-5.1569,-5.1621,-5.1642,-5.1627,-5.1626,-5.1642,-5.1644,-5.164,-5.1643,-5.1455,-5.1621,-5.162,-5.1619,-5.1619,-5.1618,-5.1122,-5.117,-5.1212,-5.1271,-5.1303,-5.1342,-5.1389,-5.1409,-5.1461,-5.152,-5.152,-5.1587,-5.1624,-5.1693,-5.1717,-5.1769,-5.1748,-5.1771,-5.1777,-5.1783,-5.1789,-5.1632,-5.1778,-5.1778,-5.1777,-5.1777,-5.1777,0,-5.1262,-5.1289,-5.1343,-5.1402,-5.1449,-5.1433,-5.1478,-5.1517,-5.1577,-5.1615,-5.1662,-5.1732,-5.1788,-5.1812,-5.1866,-5.1903,-5.1897,-5.1917,-5.1914,-5.1919,-5.1804,-5.1785,-5.192,-5.192,-5.192,-5.192,-5.192,-5.192,-5.1341,-5.1423,-5.1433,-5.1531,-5.1556,-5.1623,-5.165,-5.1686,-5.1716,-5.1796,-5.1843,-5.186,-5.1891,-5.1948,-5.1999,-5.2004,-5.2025,-5.2048,-5.205,-5.1942,-5.1927,-5.1913,-5.1895,-5.2052,-5.2052,-5.2161,-5.2162,-5.2163]}]]